{"data":{"norad_id":61567,"epoch":"2026-09-22T20:09:54.909504Z","epoch_age_seconds":95207,"freshness":"FRESH","line1":"1 61567U 24185R   26265.84021886  .00000385  00000+0  24154-3 0  9997","line2":"2 61567  88.9818  46.3283 0006784 142.5246 217.6409 14.02524020109171","mean_motion":14.0252402,"eccentricity":0.0006784,"inclination_deg":88.9818,"raan_deg":46.3283,"arg_perigee_deg":142.5246,"mean_anomaly_deg":217.6409,"bstar":0.00024154,"rev_number":10917,"period_min":102.67203837265,"perigee_km":880.14065354487,"apogee_km":889.99537010491,"semimajor_km":7263.2050118249,"source":"CELESTRAK","updated_at":"2026-09-23T09:00:20.907256Z"}}